TimeAKST,TemperatureF,Dew PointF,Humidity,Sea Level PressureIn,VisibilityMPH,Wind Direction,Wind SpeedMPH,Gust SpeedMPH,PrecipitationIn,Events,Conditions,WindDirDegrees,DateUTC
12:53 AM,6.1,1.9,83,29.59,5.0,NE,3.5,-,N/A,Snow,Light Snow,40,2013-03-01 09:53:00
1:53 AM,8.1,3.9,83,29.60,9.0,Calm,Calm,-,N/A,Snow,Light Snow,0,2013-03-01 10:53:00
2:53 AM,8.1,3.9,83,29.61,9.0,Calm,Calm,-,N/A,Snow,Light Snow,0,2013-03-01 11:53:00
3:53 AM,3.0,-0.0,87,29.63,9.0,South,3.5,-,N/A,Snow,Light Snow,180,2013-03-01 12:53:00
4:53 AM,-2.0,-5.1,87,29.67,10.0,Calm,Calm,-,N/A,,Mostly Cloudy,0,2013-03-01 13:53:00
5:53 AM,-5.1,-8.0,87,29.69,10.0,Calm,Calm,-,N/A,,Mostly Cloudy,0,2013-03-01 14:53:00
6:53 AM,-4.0,-8.0,83,29.71,10.0,Calm,Calm,-,N/A,,Mostly Cloudy,0,2013-03-01 15:53:00
7:53 AM,-8.0,-11.9,83,29.73,10.0,Calm,Calm,-,N/A,,Mostly Cloudy,0,2013-03-01 16:53:00
8:53 AM,-6.0,-9.9,83,29.75,10.0,Calm,Calm,-,N/A,,Mostly Cloudy,0,2013-03-01 17:53:00
9:53 AM,-0.0,-2.9,88,29.77,10.0,WSW,3.5,-,N/A,,Mostly Cloudy,250,2013-03-01 18:53:00
10:53 AM,3.0,-0.9,84,29.79,10.0,Calm,Calm,-,N/A,,Mostly Cloudy,0,2013-03-01 19:53:00
11:53 AM,8.1,3.0,80,29.81,10.0,Calm,Calm,-,N/A,,Mostly Cloudy,0,2013-03-01 20:53:00
12:53 PM,10.0,3.9,76,29.84,10.0,Calm,Calm,-,N/A,,Mostly Cloudy,0,2013-03-01 21:53:00
1:53 PM,12.0,6.1,77,29.85,10.0,Calm,Calm,-,N/A,,Mostly Cloudy,0,2013-03-01 22:53:00
2:53 PM,14.0,7.0,74,29.87,10.0,SSE,3.5,-,N/A,,Mostly Cloudy,150,2013-03-01 23:53:00
3:53 PM,16.0,9.0,74,29.89,10.0,Calm,Calm,-,N/A,,Mostly Cloudy,0,2013-03-02 00:53:00
4:53 PM,12.0,7.0,80,29.92,10.0,Calm,Calm,-,N/A,,Mostly Cloudy,0,2013-03-02 01:53:00
5:53 PM,7.0,3.0,84,29.95,10.0,East,3.5,-,N/A,,Mostly Cloudy,100,2013-03-02 02:53:00
6:53 PM,1.9,-0.9,88,29.98,10.0,Calm,Calm,-,N/A,,Mostly Cloudy,0,2013-03-02 03:53:00
7:53 PM,1.0,-2.9,83,30.02,10.0,Calm,Calm,-,N/A,,Scattered Clouds,0,2013-03-02 04:53:00
8:53 PM,-2.9,-7.1,82,30.05,10.0,Calm,Calm,-,N/A,,Scattered Clouds,0,2013-03-02 05:53:00
9:53 PM,-5.1,-9.0,83,30.05,10.0,Calm,Calm,-,N/A,,Clear,0,2013-03-02 06:53:00
10:53 PM,-7.1,-11.0,83,30.07,10.0,Calm,Calm,-,N/A,,Clear,0,2013-03-02 07:53:00
11:53 PM,-8.0,-13.0,79,30.08,10.0,Calm,Calm,-,N/A,,Clear,0,2013-03-02 08:53:00